Starlink 11747

operational
NORAD ID: 64322 Int'l Des: 2025-124 Owner: SPXS Country: US Constellation: starlink
LEOCIRCULAR

Über Starlink 11747

Beschreibung wird geladen...

Live-Position

3D-Globus wird geladen...

Nächste Überflüge

Höhenverlauf

Altitude vs Time

uPlot chart will show altitude changes over time

Zweizeiliger Elementsatz

1 64322U 25124F 26095.39489344 .00191402 00000-0 14594-2 0 9999
2 64322 42.9988 228.3146 0001804 294.5432 65.5247 15.70865907 47038
Epoch: 5. Apr. 2026 • Age: 12 hours

Aktueller Status

Höhe 354.8 km
Geschwindigkeit 7.70 km/s
Subsatellitenpunkt 4.12°N, 69.79°E
Startdatum 10. Juni 2025
Alter 0.8 years
Typ internet

Technische Details

Klassifizierung Payload
Masse 960.00 kg
Trockenmasse 910.00 kg
Gesamtmasse 960.00 kg
Länge 0.30 m
Durchmesser 4.10 m
Spannweite 29.00 m
Form Box + pan
Hersteller SPXS
Bus-Typ Starlink V2MD
Phasenstatus In Orbit
Besitzer/Staat SPXS/US

Große Konstellationen

Loading constellations...